Location: La Mesa
(32.7678°N, 117.0231°W)
Time: 03:30:07
(UTC+00:00)

Daily predictions for brighter satellites

Satellite Brightness Start Highest point End
(mag) Time Altitude Azimuth Time Altitude Azimuth Time Altitude Azimuth
deb Kosmos-1763 4.1 03:12:53 10° S 03:16:16 49° ESE 03:19:40 10° NNE
Cosmos 1758 Rocket 3.5 03:12:18 10° S 03:16:35 76° E 03:20:53 10° N
Okean-O 3.6 03:20:54 10° S 03:25:11 49° W 03:29:29 10° NNW
Cosmos 1869 4.1 03:25:14 10° NNE 03:28:42 31° E 03:32:09 10° SE
Cosmos 1825 3.1 03:25:39 10° SSE 03:28:53 28° E 03:32:08 10° NNE
Cosmos 2058 4.3 03:25:56 10° SE 03:29:01 21° E 03:32:08 10° NE
OBJECT-B 0.8 03:28:55 10° SSE 03:32:03 61° ENE 03:35:13 10° N
NOSS 3-2 (A) 4.2 03:24:05 10° NNW 03:32:04 79° ENE 03:40:51 10° SSE
USA 306 4.2 03:29:33 10° NNW 03:33:18 29° NE 03:36:55 11° E
SAR-Lupe-1 4.0 03:30:07 10° NNE 03:33:41 72° ESE 03:37:13 10° S
COSMOS 2406 3.5 03:28:42 10° S 03:34:03 46° ESE 03:39:29 10° NNE
SAR-Lupe-4 3.5 03:30:34 10° NNE 03:34:07 62° ESE 03:37:39 10° S
Cosmos 405 Rocket 2.8 03:32:01 10° S 03:35:50 83° W 03:39:47 10° N
SL-19 R/B 4.0 03:33:43 10° SSE 03:36:45 55° ENE 03:40:12 10° N
Cosmos 2034 Rocket 4.3 03:30:51 10° N 03:37:03 73° W 03:43:18 10° S
SJ-6B 2.7 03:33:38 10° SSE 03:37:20 61° ENE 03:41:01 10° N
Meteor 1-27 4.3 03:34:16 10° N 03:40:03 74° E 03:45:50 10° SSE
NOSS 3-4 (A) 3.7 03:36:53 10° SW 03:42:36 67° WNW 03:48:35 10° NNE
NOSS 3-4 (C) 3.7 03:36:59 10° SW 03:42:42 68° WNW 03:48:41 10° NNE
OAO 1 Rocket 4.4 03:38:16 10° WSW 03:43:39 84° SSE 03:49:00 10° ENE
Atlas Centaur 2 2.4 03:42:05 10° SW 03:45:24 24° SSE 03:47:12 17° ESE
Cosmos 1437 Rocket 3.3 03:43:12 10° N 03:46:48 38° E 03:49:36 15° SE
USA 32 4.2 03:41:50 10° N 03:46:56 51° E 03:52:01 10° SSE
BREEZE M DEB (TANK) 2.9 03:46:04 10° S 03:47:48 23° ESE 03:51:41 10° ENE
Cosmos 1656 4.2 03:43:38 10° N 03:48:57 42° ENE 03:53:02 16° SE
Resurs 01 Rocket 2.9 03:46:24 15° ESE 03:49:00 25° ENE 03:52:36 10° NNE
Cosmos 1408 2.9 03:45:27 10° SSW 03:49:04 67° W 03:52:42 10° N
Cosmos 1437 4.4 03:48:57 10° NE 03:50:26 13° ENE 03:50:30 13° ENE
Cosmos 1980 Rocket 4.3 03:49:51 10° NE 03:51:00 11° NE 03:52:09 10° ENE
ATLAS 2AS CENTAUR R/B 3.0 03:43:18 10° SSW 03:51:06 71° ESE 03:58:55 10° NE
RESURS DK-1 3.4 03:53:35 15° SSE 03:55:58 25° ESE 03:59:21 10° NE
Cosmos 1825 Rocket 4.3 03:52:00 10° SSW 03:56:15 53° W 04:00:29 10° N
NOSS 3-2 (C) 4.2 03:51:14 10° NNW 03:59:11 72° ENE 04:06:18 17° SE
Cosmos-2242 3.4 03:55:52 10° NNW 04:00:06 64° W 04:04:17 10° S
OAO 3 Copernicus 4.3 03:55:20 10° WSW 04:00:22 88° NNW 04:05:26 10° ENE
H-2A R/B 2.2 03:49:51 10° WSW 04:00:34 45° S 04:02:15 24° SE
Cosmos 1633 4.0 04:03:09 19° E 04:03:09 19° E 04:05:45 10° NE
Cosmos 44 Rocket 3.4 04:06:33 10° SSW 04:11:40 88° ESE 04:16:55 10° NNE
ERS-2 2.7 04:13:11 10° N 04:16:46 57° WNW 04:20:19 10° SSW
USA 267 3.4 04:11:08 10° NE 04:17:22 46° SE 04:23:35 10° SSW
Helios 1A Rocket 4.2 04:14:04 10° SSW 04:17:48 37° W 04:21:34 10° NNW
CENTAUR R/B 3.4 04:09:16 10° NNW 04:17:50 77° WSW 04:25:02 17° SSE
Sakura Rocket 4.3 04:10:35 10° W 04:19:13 63° S 04:23:06 26° ESE
Meteor 2-2 Rocket 4.3 04:14:02 10° N 04:19:45 60° E 04:23:03 25° SSE
Ariane Rocket 3.0 04:17:44 17° S 04:21:39 84° WSW 04:26:45 10° NNW
Cosmos 1634 Rocket 4.2 04:15:51 10° N 04:22:05 70° W 04:28:13 10° S
IRS-1A Rocket 4.4 04:21:09 15° S 04:25:50 74° WSW 04:31:21 10° NNW
Cosmos 1242 Rocket 2.3 04:23:10 10° N 04:26:46 84° E 04:27:49 44° SSE
SEDSat Delta rocket 2.7 04:24:48 10° WSW 04:28:47 63° S 04:29:54 43° ESE
OAO 2 Rocket 3.4 04:24:49 10° WNW 04:29:50 73° N 04:32:23 28° E
CZ-2C R/B 3.7 04:25:50 10° NNE 04:30:17 55° E 04:31:53 35° SSE
Cosmos 2221 2.6 04:27:51 10° N 04:32:04 55° E 04:33:02 44° SE
USA 307 2.8 04:28:18 10° NW 04:32:34 89° SW 04:33:45 47° SE
USA 238 DEB 4.3 04:25:29 10° NW 04:32:46 60° WSW 04:38:14 20° S
Cosmos 2180 Rocket 4.4 04:26:44 10° N 04:32:51 65° E 04:35:58 30° SSE
USA 238 4.3 04:25:35 10° NW 04:32:52 60° WSW 04:38:19 20° S
IGS 5A 3.5 04:40:42 38° S 04:42:11 72° W 04:46:20 10° NNW
Hubble Space Telescope 1.3 04:39:04 10° WSW 04:42:35 42° SSW 04:42:35 42° SSW
Terra 3.7 04:43:36 15° ENE 04:43:36 15° ENE 04:46:12 10° NNE
Cosmos 1606 2.9 04:42:50 10° N 04:46:13 52° ENE 04:46:13 52° ENE
USA 305 3.2 04:45:07 10° NW 04:49:11 52° SW 04:49:45 48° SSW
USA 308 3.0 04:45:13 10° NW 04:49:24 60° SW 04:49:57 54° SSW
Cosmos 1697 Rocket 2.6 04:43:54 10° NNW 04:49:34 72° ENE 04:51:14 46° SE
Cosmos 2082 Rocket 2.4 04:45:07 10° SSW 04:50:41 70° WNW 04:56:20 10° NNE
SPOT 3 Rocket 3.5 04:50:08 39° S 04:52:08 83° WSW 04:57:23 10° NNW
Cosmos 2151 3.3 05:00:21 53° NE 05:00:21 53° NE 05:03:53 10° NNE
Cosmos 1842 Rocket 4.3 05:08:33 10° NNW 05:12:51 48° W 05:13:42 42° SW
USA 306 4.2 05:09:25 10° WNW 05:12:59 30° WSW 05:12:59 30° WSW
GP-B 3.9 05:09:07 10° NNE 05:12:19 41° NE 05:12:19 41° NE
Cosmos 1092 Rocket 3.9 05:13:57 56° SSE 05:15:16 75° E 05:21:32 10° N
Meteor 2-3 Rocket 3.5 05:18:42 72° SE 05:19:07 76° E 05:24:47 10° NNE
ERS-1 Rocket 3.2 05:20:52 55° NE 05:20:52 55° NE 05:25:26 10° N
Spot 2 Rocket 3.3 05:21:57 85° SSE 05:22:07 90° ENE 05:27:16 10° NNW
Cosmos 2369 3.6 05:19:07 10° NNW 05:24:46 81° WSW 05:25:15 73° SSW
Resurs 01 Rocket 3.5 05:23:57 20° WSW 05:25:22 23° W 05:28:53 10° NW
Cosmos 2026 Rocket 3.9 05:33:39 71° S 05:34:24 85° E 05:40:45 10° N
Cosmos 1980 Rocket 2.1 05:30:05 10° NNW 05:35:38 87° N 05:35:38 87° N
Cosmos 158 Rocket 4.3 05:37:56 57° W 05:38:21 60° WNW 05:43:29 10° N
Cosmos 1627 Rocket 4.5 05:39:18 67° SSW 05:40:13 82° W 05:46:35 10° N
Cosmos 2322 Rocket 4.0 05:39:13 10° NNE 05:42:47 19° NE 05:42:47 19° NE
ARIANE 5 R/B 3.9 05:53:39 39° WNW 05:53:39 39° WNW 05:56:58 10° NNW
USA 267 4.3 05:54:09 10° NNE 06:00:15 43° NW 06:06:20 10° WSW
SPOT 5 4.2 06:02:36 33° NW 06:02:36 33° NW 06:05:15 10° NNW
ATLAS 3B R/B 2.7 05:59:53 10° NNW 06:07:08 82° ENE 06:07:15 82° ENE
SL-16 R/B 3.2 06:03:14 10° N 06:07:23 37° NNE 06:07:23 37° NNE
Cosmos 1553 Rocket 4.3 06:13:14 10° N 06:18:04 59° N 06:18:04 59° N
Terra 3.4 06:22:29 32° NW 06:22:29 32° NW 06:25:21 10° NNW
USA 234 4.4 06:28:21 31° ENE 06:29:37 34° NE 06:35:21 10° NNW
Cosmos 2333 Rocket 4.2 06:48:40 10° NNE 06:51:37 19° NE 06:51:37 19° NE
Cosmos 2360 Rocket 3.6 06:53:12 10° N 06:56:30 33° NNE 06:56:30 33° NNE
Cosmos 2322 Rocket 4.0 07:22:03 10° NNW 07:24:34 26° NW 07:24:34 26° NW
COSMOS 2428 4.4 07:45:05 10° N 07:48:18 29° NNE 07:48:18 29° NNE
Cosmos 2219 Rocket 3.8 07:50:05 10° N 07:52:56 30° N 07:52:56 30° N
COSMOS 2455 4.3 08:10:42 30° NNW 08:10:42 30° NNW 08:14:44 10° N
Lacrosse 5 4.1 08:37:07 20° NE 08:37:07 20° NE 08:38:38 10° NE
ATLAS 5 CENTAUR R/B 3.6 08:30:37 10° NNW 08:35:47 38° NE 08:35:47 38° NE
Cosmos 2333 Rocket 4.2 08:31:48 10° NNW 08:33:36 20° NW 08:33:36 20° NW
SL-16 R/B 4.0 08:45:15 27° ENE 08:45:56 28° ENE 08:50:59 10° N
Resurs 1-4 Rocket 3.9 08:41:49 10° NNE 08:44:30 26° NE 08:44:30 26° NE
Cosmos 2297 Rocket 3.4 09:00:40 37° N 09:00:40 37° N 09:04:10 10° NNE
Cosmos 2227 Rocket 3.3 09:11:21 40° N 09:11:21 40° N 09:15:01 10° NNE
Cosmos 2237 Rocket 3.3 09:04:30 10° NNW 09:08:08 40° N 09:08:08 40° N
ADEOS Rocket 4.0 09:16:08 33° E 09:16:31 34° ENE 09:21:25 10° N
USA 229 DEB 4.3 09:12:17 10° NW 09:17:56 53° WNW 09:17:56 53° WNW
USA 229 4.3 09:12:22 10° NW 09:18:04 53° WNW 09:18:04 53° WNW
CZ-2D R/B 3.0 09:19:56 10° NNE 09:23:40 47° NNE 09:23:40 47° NNE
ADEOS II 3.3 09:21:53 10° NNE 09:25:41 36° ENE 09:25:41 36° ENE
Cosmos 2181 Rocket 4.3 09:22:54 10° N 09:28:07 63° N 09:28:07 63° N
SL-16 R/B 3.5 09:28:54 10° N 09:34:01 34° ENE 09:35:34 30° E
Cosmos 2263 Rocket 3.5 09:36:12 30° E 09:36:12 30° E 09:40:42 10° NE
ATLAS 2A CENTAUR R/B 3.8 09:51:02 61° S 09:51:30 62° SSE 10:18:04 10° E
Helios 1B rocket 4.4 09:49:22 10° N 09:51:15 26° N 09:51:15 26° N
BREEZE-M DEB (TANK) 4.5 10:03:47 30° NW 10:06:24 89° SW 10:27:39 10° SE
Nadezhda 3 Rocket 4.2 10:03:14 10° N 10:09:34 67° E 10:11:14 49° SE
Cosmos 2327 Rocket 4.3 10:10:32 81° SW 10:10:48 84° W 10:17:00 10° N
CZ-3B R/B 4.3 10:12:02 43° S 10:13:10 44° S 10:20:15 10° ESE
Cosmos 2344 3.4 10:14:50 59° SSW 10:16:30 89° ESE 10:24:00 10° NNE
CBERS-1 4.1 10:11:38 10° NNE 10:16:46 71° ESE 10:16:47 71° ESE
Lacrosse 5 3.9 10:16:19 17° NW 10:17:01 18° NW 10:20:24 10° N
IDEFIX/ARIANE 42P 2.6 10:11:54 10° NNE 10:17:04 69° E 10:17:13 68° ESE
Cosmos 1378 Rocket 4.3 10:12:57 10° N 10:16:54 49° ENE 10:16:54 49° ENE
Cosmos 1908 Rocket 4.2 10:19:31 53° ENE 10:19:31 53° ENE 10:23:14 10° NNE
Cosmos 1356 Rocket 4.3 10:20:55 45° NNE 10:20:55 45° NNE 10:23:48 10° NNE
ATLAS 5 CENTAUR R/B 4.1 10:15:13 10° NW 10:17:13 20° WNW 10:17:13 20° WNW
Resurs 1-4 Rocket 3.7 10:22:16 10° NNW 10:25:34 21° WNW 10:25:34 21° WNW
SL-16 R/B 3.2 10:30:20 36° WNW 10:30:20 36° WNW 10:34:58 10° NNW
DELTA 2 DEB (DPAF) 4.2 10:30:51 71° E 10:30:57 71° ENE 10:35:22 10° N
Cosmos 1190 Rocket 3.8 10:31:49 77° S 10:32:13 88° ESE 10:37:32 10° NNE
USA 215 3.5 10:26:59 10° NE 10:33:24 57° SE 10:35:19 43° S
Cosmos 1295 Rocket 4.5 10:33:38 55° WSW 10:34:11 58° W 10:40:13 10° N
Centaur AC-112 4.0 10:33:53 40° SSE 10:34:22 41° SSE 10:48:16 10° E
Cosmos 1140 Rocket 3.4 10:34:56 67° W 10:35:04 67° WNW 10:40:19 10° N
Cosmos 2154 Rocket 4.3 10:35:29 47° W 10:35:49 47° W 10:41:46 10° N
ASTRO E2 3.8 10:40:22 37° ESE 10:40:22 37° ESE 10:42:57 10° E
CZ-4C R/B 4.3 10:40:07 34° ESE 10:41:23 47° ENE 10:45:25 10° N
Okean 2 3.6 10:41:35 10° N 10:45:10 62° NW 10:45:10 62° NW
Meteor 1-21 4.1 10:40:31 10° N 10:46:19 78° W 10:48:10 45° S
Cosmos 1954 Rocket 4.1 10:44:56 49° S 10:46:20 72° ESE 10:51:39 10° NNE
CZ-4B R/B 4.0 10:44:04 10° NNE 10:48:44 49° E 10:50:38 31° SSE
MSX 3.7 10:45:43 10° N 10:51:27 78° WNW 10:53:13 46° SSW
ARIANE 5 R/B 2.7 10:48:42 10° NNE 10:53:53 70° ESE 10:56:00 36° S
CZ-2D R/B 4.1 10:53:55 10° NNE 10:57:50 49° E 10:59:15 33° SSE
Cosmos 1782 Rocket 3.4 11:00:42 59° SSW 11:01:29 83° W 11:05:51 10° N
ADEOS Rocket 4.0 11:03:05 23° W 11:03:05 23° W 11:06:30 10° NW
Cosmos 1805 3.9 11:01:49 34° SSE 11:03:10 52° E 11:06:58 10° NNE
Cosmos 864 Rocket 4.5 11:02:17 26° S 11:05:58 86° E 11:12:16 10° N
Cosmos 1959 Rocket 4.4 11:02:30 28° S 11:05:59 89° E 11:12:10 10° N
ADEOS II 3.6 11:02:24 10° NNW 11:06:10 20° WNW 11:06:36 20° WNW
ATLAS CENTAUR R/B 1.8 11:09:58 38° WNW 11:10:05 39° WNW 11:13:42 10° NNE
IUS-17 SRM-1 3.8 11:11:22 37° SSW 11:11:22 37° SSW 11:13:55 10° SE
SL-8 Rocket 4.0 11:09:37 32° SSW 11:12:29 64° W 11:18:36 10° N
KORONAS-FOTON 4.1 11:09:15 10° N 11:13:10 68° E 11:15:43 20° SSE
Cosmos 676 Rocket 4.1 11:12:58 38° SW 11:14:54 62° WNW 11:20:11 10° N
Cosmos 2366 rocket 4.0 11:11:29 26° SSW 11:15:17 77° W 11:21:40 10° N
IRS-1C 4.3 11:10:24 10° N 11:15:37 55° WNW 11:17:43 34° SW
SL-16 R/B 3.2 11:13:19 10° NW 11:17:20 25° W 11:17:20 25° W
Delta 142 4.3 11:16:04 32° WSW 11:18:36 52° S 11:23:28 10° ESE
Cosmos 2263 Rocket 3.2 11:17:54 25° W 11:19:36 30° WNW 11:24:33 10° N
Cosmos 1707 3.6 11:17:13 10° NNW 11:20:12 31° WNW 11:20:12 31° WNW
PAYLOAD A 4.1 11:21:48 10° NNE 11:27:15 84° ESE 11:31:26 17° S
Spot 1 4.0 11:25:21 27° SSW 11:27:25 55° WSW 11:31:27 10° NNW
Cosmos 1733 3.1 11:27:50 30° SSW 11:29:38 79° W 11:33:29 10° N
ALOS 3.1 11:25:41 10° NNE 11:30:13 48° E 11:34:42 10° S
GEOS 3 Rocket 4.3 11:25:31 10° SE 11:30:46 60° NE 11:36:01 10° NNW
Cosmos 1766 3.2 11:29:44 21° S 11:32:15 80° E 11:36:09 10° N
Cosmos 1741 Rocket 4.3 11:29:58 14° S 11:34:23 66° ESE 11:39:36 10° NNE
SL-08 R/B 3.3 11:30:56 10° S 11:35:50 75° WSW 11:40:48 10° NNW
Delta 128 4.0 11:34:57 28° WSW 11:37:00 48° S 11:41:48 10° ESE
CZ-4C R/B 3.1 11:29:12 10° NNW 11:37:02 80° WSW 11:45:41 10° SSE
Meteor 2-20 4.4 11:33:30 10° NNW 11:39:35 66° W 11:45:40 10° S
Cosmos 2218 Rocket 4.4 11:37:15 21° SW 11:41:13 44° W 11:47:16 10° N
Cosmos 1300 Rocket 3.5 11:38:50 20° SSW 11:41:47 67° W 11:46:06 10° N
USA 290 4.4 11:40:49 10° N 11:43:43 29° ENE 11:46:35 10° SE
Meteor 2-20 Rocket 4.4 11:38:09 10° N 11:44:19 86° W 11:50:28 10° S
Meteor 1-15 Rocket 4.3 11:43:12 13° SSW 11:48:31 67° W 11:54:24 10° N
Cosmos 1484 Rocket 3.8 11:46:56 10° NNE 11:50:47 47° E 11:54:37 10° S
Cosmos 1340 3.2 11:48:38 10° NNW 11:52:05 36° W 11:54:38 16° SSW
Cosmos 1975 Rocket 3.4 11:47:58 10° NNW 11:52:08 43° W 11:56:15 10° SSW
Cosmos 1727 Rocket 4.0 11:46:54 10° N 11:53:09 82° W 11:59:26 10° S
Cosmos 1400 Rocket 3.6 11:51:47 21° WSW 11:53:32 31° WNW 11:57:01 10° NNW
Cosmos 1626 2.2 11:52:19 10° NNW 11:55:55 54° W 11:59:29 10° S
